Location: Cucq
(50.4773°N, 1.6202°E)
Time: 22:06:37
(UTC+00:00)

H-2A R/B - Pass Details

Date: 07 August 2020
Orbit: 578 x 654 km, 98.5° (Epoch: 22 September)

Event Time Altitude Azimuth Distance (km) Brightness Sun altitude
Rises 02:09:48 0° 127° (SE) 2,806 5.4 -17.3°
Reaches altitude 10° 02:12:18 10° 112° (ESE) 1,903 4.7 -17.1°
Maximum altitude 02:15:29 22° 61° (ENE) 1,286 4.4 -16.8°
Drops below altitude 10° 02:18:41 10° 10° (N) 1,906 5.6 -16.5°
Sets 02:21:11 0° 356° (N) 2,811 6.3 -16.3°
